{"data":{"norad_id":69444,"intl_designator":"2026-127B","name":"STARLINK-37509","alt_names":[],"object_type":"PAYLOAD","status":"ACTIVE","operator":null,"country":"US","launch_date":"2026-06-08","launch_site_code":"AFETR","launch_vehicle":null,"mission":null,"orbit_class":"UNKNOWN","rcs_meters":null,"size_class":null,"mass_kg":null,"dimensions":null,"purposes":["comms"],"wikipedia_slug":null,"has_3d_model":false,"image_url":null,"decayed_at":null,"tle_current":{"epoch":"2026-09-20T02:52:22.665792Z","epoch_age_seconds":58353,"freshness":"FRESH","line1":"1 69444U 26127B   26263.11970678  .00012982  00000+0  39447-3 0  9994","line2":"2 69444  53.1567 167.5096 0000887 123.9996 236.1091 15.34416847 16138","mean_motion":15.34416847,"eccentricity":8.87e-5,"inclination_deg":53.1567,"raan_deg":167.5096,"arg_perigee_deg":123.9996,"mean_anomaly_deg":236.1091,"bstar":0.00039447,"rev_number":1613,"period_min":93.846727687812,"perigee_km":462.04638974302,"apogee_km":463.25994591879,"semimajor_km":6840.7901678309,"source":"CELESTRAK","updated_at":"2026-09-20T09:00:44.198829Z"}}}